Time,TemperatureF,DewpointF,PressureIn,WindDirection,WindDirectionDegrees,WindSpeedMPH,WindSpeedGustMPH,Humidity,HourlyPrecipIn,Conditions,Clouds,dailyrainin,SoftwareType,DateUTC
2013-06-15 00:34:00,65.0,-99.9,-100.00,SSW,206,5.0,5.0,-999,-99.99,,,-99.99,,2013-06-15 05:34:00,
2013-06-15 00:43:00,65.0,-99.9,-100.00,SSW,206,5.0,5.0,-999,-99.99,,,-99.99,,2013-06-15 05:43:00,
2013-06-15 02:02:00,63.0,-99.9,-100.00,SSW,208,1.0,3.0,-999,-99.99,,,-99.99,,2013-06-15 07:02:00,
2013-06-15 02:11:00,63.0,-99.9,-100.00,SSW,208,1.0,3.0,-999,-99.99,,,-99.99,,2013-06-15 07:11:00,
2013-06-15 03:20:00,62.0,-99.9,-100.00,South,180,6.0,9.0,-999,-99.99,,,-99.99,,2013-06-15 08:20:00,
2013-06-15 04:02:00,62.0,-99.9,-100.00,South,180,6.0,9.0,-999,-99.99,,,-99.99,,2013-06-15 09:02:00,
2013-06-15 04:12:00,62.0,-99.9,-100.00,South,180,6.0,9.0,-999,-99.99,,,-99.99,,2013-06-15 09:12:00,
2013-06-15 05:34:00,62.0,-99.9,-100.00,SSW,193,5.0,10.0,-999,-99.99,,,-99.99,,2013-06-15 10:34:00,
2013-06-15 05:44:00,62.0,-99.9,-100.00,SSW,193,5.0,10.0,-999,-99.99,,,-99.99,,2013-06-15 10:44:00,
2013-06-15 05:53:00,62.0,-99.9,-100.00,SSW,193,5.0,10.0,-999,-99.99,,,-99.99,,2013-06-15 10:53:00,
2013-06-15 07:23:00,62.0,-99.9,-100.00,SSW,193,6.0,9.0,-999,-99.99,,,-99.99,,2013-06-15 12:23:00,
2013-06-15 07:33:00,62.0,-99.9,-100.00,SSW,193,6.0,9.0,-999,-99.99,,,-99.99,,2013-06-15 12:33:00,
2013-06-15 08:33:00,65.0,-99.9,-100.00,WSW,256,1.0,6.0,-999,-99.99,,,-99.99,,2013-06-15 13:33:00,
2013-06-15 08:44:00,65.0,-99.9,-100.00,WSW,256,1.0,6.0,-999,-99.99,,,-99.99,,2013-06-15 13:44:00,
2013-06-15 08:53:00,65.0,-99.9,-100.00,WSW,256,1.0,6.0,-999,-99.99,,,-99.99,,2013-06-15 13:53:00,
2013-06-15 09:34:00,68.0,-99.9,-100.00,SW,228,4.0,4.0,-999,-99.99,,,-99.99,,2013-06-15 14:34:00,
2013-06-15 09:43:00,68.0,-99.9,-100.00,SW,228,4.0,4.0,-999,-99.99,,,-99.99,,2013-06-15 14:43:00,
2013-06-15 11:33:00,73.0,-99.9,-100.00,NE,46,1.0,5.0,-999,-99.99,,,-99.99,,2013-06-15 16:33:00,
2013-06-15 11:43:00,73.0,-99.9,-100.00,NE,46,1.0,5.0,-999,-99.99,,,-99.99,,2013-06-15 16:43:00,
2013-06-15 12:02:00,79.0,-99.9,-100.00,ESE,104,6.0,7.0,-999,-99.99,,,-99.99,,2013-06-15 17:02:00,
2013-06-15 12:12:00,79.0,-99.9,-100.00,ESE,104,6.0,7.0,-999,-99.99,,,-99.99,,2013-06-15 17:12:00,
2013-06-15 13:33:00,83.0,-99.9,-100.00,West,271,5.0,11.0,-999,-99.99,,,-99.99,,2013-06-15 18:33:00,
2013-06-15 13:43:00,83.0,-99.9,-100.00,West,271,5.0,11.0,-999,-99.99,,,-99.99,,2013-06-15 18:43:00,
2013-06-15 13:53:00,83.0,-99.9,-100.00,West,271,5.0,11.0,-999,-99.99,,,-99.99,,2013-06-15 18:53:00,
2013-06-15 15:34:00,81.0,-99.9,-100.00,SE,126,1.0,12.0,-999,-99.99,,,-99.99,,2013-06-15 20:34:00,
2013-06-15 15:43:00,81.0,-99.9,-100.00,SE,126,1.0,12.0,-999,-99.99,,,-99.99,,2013-06-15 20:43:00,
2013-06-15 15:53:00,81.0,-99.9,-100.00,SE,126,1.0,12.0,-999,-99.99,,,-99.99,,2013-06-15 20:53:00,
2013-06-15 16:20:00,87.0,-99.9,-100.00,ENE,64,7.0,12.0,-999,-99.99,,,-99.99,,2013-06-15 21:20:00,
2013-06-15 18:20:00,85.0,-99.9,-100.00,ENE,76,7.0,10.0,-999,-99.99,,,-99.99,,2013-06-15 23:20:00,
2013-06-15 19:02:00,85.0,-99.9,-100.00,ENE,76,7.0,10.0,-999,-99.99,,,-99.99,,2013-06-16 00:02:00,
2013-06-15 19:12:00,85.0,-99.9,-100.00,ENE,76,7.0,10.0,-999,-99.99,,,-99.99,,2013-06-16 00:12:00,
2013-06-15 20:20:00,83.0,-99.9,-100.00,East,95,4.0,9.0,-999,-99.99,,,-99.99,,2013-06-16 01:20:00,
2013-06-15 20:50:00,81.0,-99.9,-100.00,ESE,106,4.0,6.0,-999,-99.99,,,-99.99,,2013-06-16 01:50:00,
2013-06-15 21:02:00,83.0,-99.9,-100.00,East,95,4.0,9.0,-999,-99.99,,,-99.99,,2013-06-16 02:02:00,
2013-06-15 21:12:00,83.0,-99.9,-100.00,East,95,4.0,9.0,-999,-99.99,,,-99.99,,2013-06-16 02:12:00,
2013-06-15 21:34:00,81.0,-99.9,-100.00,ESE,106,4.0,6.0,-999,-99.99,,,-99.99,,2013-06-16 02:34:00,
2013-06-15 21:43:00,81.0,-99.9,-100.00,ESE,106,4.0,6.0,-999,-99.99,,,-99.99,,2013-06-16 02:43:00,
2013-06-15 23:34:00,70.0,-99.9,-100.00,South,174,10.0,15.0,-999,-99.99,,,-99.99,,2013-06-16 04:34:00,
2013-06-15 23:43:00,70.0,-99.9,-100.00,South,174,10.0,15.0,-999,-99.99,,,-99.99,,2013-06-16 04:43:00,
2013-06-15 23:53:00,69.0,-99.9,-100.00,South,172,6.0,11.0,-999,-99.99,,,-99.99,,2013-06-16 04:53:00,